Wetbulb
44.28 44.77 44.59 44.24 44.32 44.74 44.39 44.17 43.90 44.73 44.63 44.98 45.58 46.35 47.17 47.95 48.89 49.38 50.04 50.80 50.59 50.67 51.11 50.77 50.48 50.71 50.42 50.16 49.31 48.02 47.51 46.47 43.24 46.28 48.25 45.35 38.78 36.82 35.80 36.38 37.41 37.60 39.22
42.27 42.96 42.49 42.68 42.65 42.56 42.13 41.90 41.85 41.59 42.19 41.99 42.53 43.14 43.97 44.84 45.71 46.01 46.32 47.25 47.50 47.39 47.65 47.74 47.60 48.39 48.49 49.02 48.89 47.53 46.49 46.42 44.54 42.51 45.26 45.42 36.13 35.49 36.25 34.28 34.50 36.11 36.58
40.51 40.56 40.60 40.12 39.96 39.82 39.51 39.57 39.63 39.57 39.91 40.65 40.36 40.13 40.50 41.52 42.28 43.45 44.34 44.98 45.84 46.50 46.16 45.09 45.05 45.28 44.62 45.44 45.99 45.90 46.31 45.10 44.80 42.79 42.86 45.11 36.18 33.39 33.08 33.40 33.49 33.46 34.18
39.48 39.40 39.21 38.96 38.65 38.73 38.69 38.47 38.28 38.42 38.64 38.99 39.19 39.23 39.68 39.75 40.00 40.76 41.38 42.05 42.97 43.43 44.05 44.07 43.61 42.98 42.56 43.27 43.18 43.16 42.88 43.19 43.12 41.33 41.23 41.28 36.00 31.07 32.71 31.37 29.54 31.79 31.60
38.26 38.17 37.64 37.59 37.48 36.95 36.58 36.18 36.13 36.05 36.51 36.71 36.62 37.15 37.94 38.19 38.37 38.23 38.63 39.40 39.23 39.19 40.02 40.01 40.48 40.49 38.50 40.74 41.73 41.99 41.97 40.65 40.67 39.55 38.52 39.15 36.14 28.20 28.55 30.79 30.88 30.57 30.28
36.83 35.97 36.03 35.51 34.98 35.26 34.70 34.00 34.14 34.48 34.91 35.02 35.02 35.37 35.27 36.34 36.84 36.13 36.49 37.12 36.50 36.16 36.25 37.63 38.64 36.57 38.06 39.12 40.10 40.62 40.81 39.27 36.69 38.07 38.51 37.24 36.89 35.75 33.22 30.67 29.19 27.03 25.52
35.64 35.01 33.89 33.63 33.30 33.40 33.02 32.80 33.01 33.25 33.45 32.95 33.58 33.98 34.00 35.01 35.00 35.30 35.51 35.49 35.79 35.72 35.60 35.69 35.87 36.42 35.38 36.81 38.08 38.89 38.92 39.40 40.47 38.68 36.38 36.74 36.76 37.17 33.11 29.91 28.72 28.27 28.85
34.57 33.98 33.25 32.32 31.69 31.62 31.30 31.27 31.99 32.38 32.01 32.34 32.64 32.62 32.89 33.05 33.93 34.34 34.46 35.00 35.61 35.91 36.06 35.06 34.79 34.85 35.77 35.55 35.63 35.13 35.34 35.83 35.95 35.67 35.81 36.06 36.62 36.68 33.81 32.92 30.50 31.11 31.25
32.31 31.76 31.02 30.51 29.41 29.27 28.58 29.87 30.63 31.00 31.22 31.45 31.81 31.46 31.35 31.89 32.96 33.20 33.46 33.82 33.66 33.96 34.60 35.45 35.70 35.54 35.85 35.80 34.09 33.19 33.49 34.02 36.03 36.60 36.80 37.42 38.12 38.73 34.84 31.76 30.19 28.27 26.37
29.90 28.92 28.53 28.49 27.77 27.36 27.98 28.10 29.46 29.80 29.08 30.07 30.33 31.17 30.74 30.80 32.36 32.86 32.79 32.83 31.47 31.72 33.47 33.67 32.78 34.34 34.90 35.03 32.98 32.43 31.39 32.32 33.00 32.92 32.90 33.72 34.96 34.79 35.75 32.63 31.60 28.01 26.44
26.99 26.13 25.75 26.02 26.22 27.60 28.44 28.34 27.42 27.04 27.11 27.56 28.29 30.18 31.33 31.71 31.22 32.02 32.10 31.85 30.76 30.51 30.71 31.01 32.69 34.20 33.98 33.89 34.15 32.52 32.06 33.53 33.43 32.54 31.99 32.12 32.29 32.14 31.98 32.54 32.11 31.32 27.24
23.53 22.03 21.60 21.80 23.27 25.17 25.36 26.95 27.82 27.28 26.19 25.60 26.73 28.40 30.88 31.70 30.57 31.04 31.48 31.76 32.04 30.23 30.22 32.24 32.63 32.44 33.17 33.54 33.21 33.64 34.35 34.13 32.27 31.94 31.45 31.07 30.67 30.72 30.56 31.43 31.19 29.99 30.31
18.01 16.23 17.42 19.33 20.60 22.34 23.11 23.78 26.05 28.08 26.97 25.79 25.38 25.59 27.05 29.99 30.98 31.08 30.37 30.90 31.71 31.36 32.29 31.20 31.79 31.50 31.85 31.94 32.12 32.86 32.13 32.54 31.91 30.85 30.28 29.46 29.39 27.85 27.39 25.22 24.14 23.41 22.53
13.49 14.50 16.30 17.44 18.78 20.44 22.22 23.64 24.56 25.46 26.27 25.79 25.06 26.12 28.17 30.25 31.05 31.29 31.26 31.94 31.77 31.33 31.00 31.20 30.45 31.10 31.62 31.31 31.50 32.21 31.64 31.86 30.84 30.01 28.26 28.01 28.70 27.16 25.63 25.58 23.76 23.43 20.39
11.11 12.77 14.81 16.89 17.67 17.94 19.24 21.03 21.96 24.13 25.62 25.35 26.66 27.72 27.63 29.07 31.39 32.13 31.90 31.80 31.98 31.35 30.02 30.64 30.51 30.68 29.98 30.51 30.70 30.50 31.05 31.13 29.76 29.26 28.38 27.54 26.55 25.35 24.21 24.61 23.32 23.56 21.72
9.20 12.57 13.87 13.18 14.91 15.94 17.42 18.72 22.33 24.10 26.03 28.14 30.32 30.90 32.01 31.18 31.86 33.42 32.02 32.86 32.22 30.97 29.48 28.55 28.70 29.01 28.68 29.01 28.93 28.96 29.38 29.22 29.43 29.30 28.66 27.93 26.73 25.77 24.01 23.21 23.36 23.77 20.99
6.32 8.50 10.88 11.63 13.24 14.05 15.27 16.17 16.08 21.13 25.30 27.89 29.16 31.80 30.86 31.75 32.50 32.40 33.50 32.89 30.73 29.73 28.02 27.56 26.91 26.95 27.53 27.45 27.66 27.55 27.03 27.82 29.71 29.28 28.59 27.84 27.38 25.46 25.48 23.54 22.98 22.58 20.84
4.85 6.65 8.74 11.25 12.36 13.29 14.29 15.64 17.00 18.07 20.05 24.37 27.26 27.83 28.08 27.11 27.61 30.11 33.08 30.11 25.60 23.54 22.18 21.89 21.66 22.39 22.90 23.41 23.80 24.26 24.54 25.23 25.46 25.76 25.68 25.87 25.64 25.17 23.97 23.12 22.27 20.98 20.09
6.40 8.92 9.84 10.90 11.86 12.74 13.92 16.11 18.34 20.50 23.06 23.39 23.62 24.45 23.55 24.26 22.11 22.42 22.93 20.83 18.81 17.14 17.50 17.05 17.16 17.65 18.68 19.77 20.49 20.34 20.12 19.38 20.08 21.26 21.11 20.95 21.23 22.11 20.69 20.46 19.57 17.41 17.76
7.65 7.52 8.24 10.06 12.12 14.06 16.25 17.97 20.21 22.66 20.65 18.81 18.69 18.18 19.06 19.04 15.21 13.01 12.91 13.70 13.76 13.42 13.78 13.38 13.62 14.16 14.74 15.88 16.69 16.88 17.01 16.37 16.47 16.75 16.62 17.11 17.55 18.41 17.71 17.39 17.31 16.72 16.27
7.53 8.79 9.19 11.33 13.75 14.70 15.91 17.86 19.56 18.91 16.62 14.88 14.54 17.84 16.99 12.97 11.28 10.54 9.57 9.01 8.94 9.37 10.01 10.00 9.83 9.74 10.21 11.59 13.41 13.91 13.03 12.84 12.36 12.84 13.30 13.61 13.75 14.26 14.52 14.94 14.18 13.19 13.30
8.93 9.25 10.65 11.59 13.24 14.28 14.12 15.74 15.84 15.07 13.97 12.83 11.86 11.78 13.79 10.31 9.49 8.57 7.51 6.52 6.36 6.18 6.32 6.68 5.77 4.67 4.03 4.93 6.40 9.65 9.22 8.72 9.08 9.96 10.40 9.65 11.30 11.43 11.51 11.13 11.14 10.19 9.79
8.27 9.00 10.34 11.19 11.78 11.48 12.39 11.82 11.94 11.68 10.65 9.93 9.59 8.79 8.18 7.20 6.44 5.69 4.59 4.07 3.82 3.79 3.81 4.28 4.37 3.39 3.06 2.76 3.01 3.56 5.19 4.13 3.05 3.29 6.20 6.90 7.12 8.15 7.78 8.90 7.50 6.99 7.45
6.97 7.69 8.21 8.82 9.33 9.74 9.82 9.20 9.12 8.13 8.19 7.47 6.93 6.25 5.57 4.94 4.37 3.43 3.19 3.17 3.33 2.92 2.52 1.82 1.07 -0.13 -0.11 0.11 1.94 1.65 0.68 0.27 0.13 0.64 0.29 3.45 4.31 3.22 4.47 3.40 4.38 2.52 4.17
5.34 5.79 5.98 6.12 6.35 6.79 7.54 7.04 6.60 6.21 5.83 5.25 4.72 4.36 3.78 3.58 3.32 2.67 1.74 1.19 0.33 0.82 0.83 -0.71 -0.69 -1.40 -1.94 -3.80 -3.28 -2.96 -3.30 -5.69 -3.15 -6.47 -0.79 0.35 0.45 -1.20 -0.81 1.09 1.23 2.08 1.20
3.53 3.94 4.34 4.71 4.55 4.61 4.67 4.71 4.89 4.48 3.75 3.30 2.58 2.06 1.51 1.39 1.32 0.81 -0.00 -1.71 -1.68 -2.01 -2.68 -2.14 -2.90 -4.84 -5.30 -3.24 -2.62 -2.50 -4.82 1.73 0.63 -6.39 -0.88 1.16 0.56 0.42 -0.87 -0.49 -2.15 0.51 0.98
MSLP
1023.99 1023.84 1023.83 1023.86 1023.63 1023.47 1023.33 1023.21 1022.97 1022.51 1022.16 1021.72 1021.23 1020.85 1020.48 1020.08 1019.71 1019.45 1019.14 1018.83 1018.47 1018.11 1017.89 1017.59 1017.21 1017.26 1016.86 1016.67 1016.54 1016.38 1016.19 1016.00 1015.24 1012.40 1013.94 1014.16 1014.62 1014.84 1014.96 1014.90 1015.05 1015.13 1015.03
1024.44 1024.22 1024.18 1024.06 1023.92 1023.71 1023.63 1023.54 1023.40 1023.11 1022.71 1022.25 1021.71 1021.20 1020.77 1020.40 1020.01 1019.64 1019.20 1018.83 1018.34 1017.89 1017.54 1017.16 1016.63 1016.59 1016.09 1016.00 1015.79 1015.27 1015.06 1015.02 1014.70 1013.47 1013.19 1013.58 1013.94 1013.88 1014.07 1014.30 1014.47 1014.52 1014.42
1024.88 1024.70 1024.70 1024.64 1024.56 1024.36 1024.28 1024.12 1023.71 1023.26 1022.72 1022.17 1021.85 1021.48 1020.98 1020.52 1020.07 1019.66 1019.19 1018.62 1018.12 1017.57 1017.21 1016.95 1016.55 1016.37 1015.78 1015.59 1015.18 1014.82 1014.39 1014.09 1013.82 1013.38 1012.24 1012.86 1013.13 1013.44 1013.69 1013.72 1013.81 1013.95 1014.01
1025.42 1025.28 1025.20 1025.18 1025.10 1024.82 1024.60 1024.36 1023.87 1023.32 1022.80 1022.30 1021.85 1021.41 1021.04 1020.49 1020.03 1019.55 1019.05 1018.47 1017.85 1017.43 1017.03 1016.65 1016.00 1015.66 1015.32 1015.04 1014.62 1014.11 1013.76 1013.45 1013.16 1012.74 1012.14 1012.01 1012.48 1012.91 1013.13 1013.30 1013.47 1013.38 1013.32
1025.87 1025.76 1025.76 1025.69 1025.51 1025.24 1024.87 1024.51 1023.99 1023.56 1023.00 1022.51 1021.88 1021.30 1020.90 1020.41 1019.90 1019.62 1019.12 1018.47 1018.00 1017.34 1016.66 1016.05 1015.80 1015.38 1014.98 1014.63 1014.29 1013.45 1013.15 1012.73 1012.30 1012.04 1011.68 1011.56 1011.78 1012.43 1012.31 1012.25 1012.46 1012.50 1012.73
1026.05 1026.10 1026.06 1025.93 1025.68 1025.33 1024.89 1024.40 1023.90 1023.43 1023.00 1022.45 1021.82 1021.32 1020.83 1020.16 1019.69 1019.47 1019.06 1018.21 1017.57 1017.05 1016.26 1015.63 1015.11 1014.70 1014.20 1013.91 1013.49 1012.95 1012.79 1012.29 1011.77 1011.52 1010.96 1010.54 1010.35 1010.53 1011.07 1011.51 1011.83 1012.27 1012.30
1026.27 1026.15 1026.08 1025.91 1025.61 1025.18 1024.79 1024.29 1023.74 1023.17 1022.69 1022.22 1021.77 1021.34 1020.64 1020.11 1019.61 1019.13 1018.46 1018.00 1017.09 1016.45 1015.90 1015.28 1014.60 1014.17 1013.84 1013.38 1012.81 1012.33 1011.95 1011.67 1011.35 1011.09 1010.51 1009.90 1009.66 1009.60 1010.16 1010.52 1010.89 1010.99 1011.05
1026.26 1026.08 1025.87 1025.68 1025.43 1025.01 1024.59 1024.16 1023.55 1023.04 1022.56 1022.10 1021.48 1021.01 1020.43 1019.71 1019.14 1018.77 1018.17 1017.45 1016.59 1015.81 1015.25 1014.79 1014.29 1013.63 1013.28 1012.93 1012.45 1011.85 1011.46 1011.14 1010.89 1010.43 1010.11 1009.42 1009.34 1008.87 1009.08 1009.31 1009.59 1010.16 1010.86
1026.26 1026.09 1025.91 1025.74 1025.42 1024.96 1024.44 1023.87 1023.40 1022.80 1022.29 1021.64 1021.18 1020.50 1020.00 1019.02 1018.53 1018.11 1017.64 1016.99 1016.03 1015.27 1014.72 1014.27 1013.62 1013.03 1012.60 1012.52 1012.04 1011.48 1010.88 1010.40 1010.09 1009.82 1009.52 1009.03 1008.65 1008.36 1008.48 1009.15 1009.51 1010.05 1010.58
1026.78 1026.64 1026.36 1026.04 1025.72 1025.24 1024.76 1024.28 1023.68 1023.07 1022.18 1021.54 1020.72 1020.11 1019.43 1018.54 1018.05 1017.57 1017.21 1016.55 1015.50 1014.75 1014.21 1013.62 1013.17 1012.79 1012.25 1011.95 1011.60 1011.19 1010.36 1009.89 1009.90 1009.25 1009.05 1008.61 1008.36 1008.02 1008.28 1008.48 1008.86 1009.44 1010.17
1027.28 1027.00 1026.64 1026.23 1025.82 1025.29 1024.61 1024.24 1023.64 1022.90 1022.11 1021.29 1020.39 1019.47 1018.79 1018.17 1017.42 1017.10 1016.68 1016.05 1015.32 1014.37 1013.77 1013.09 1012.64 1012.22 1011.74 1011.49 1011.23 1010.82 1010.14 1009.69 1009.36 1009.02 1008.82 1008.54 1008.37 1008.17 1008.36 1008.70 1009.12 1009.60 1010.05
1027.63 1027.37 1026.93 1026.50 1026.11 1025.24 1024.45 1023.58 1022.93 1022.19 1021.47 1020.71 1019.88 1018.87 1018.10 1017.66 1017.23 1016.48 1015.97 1015.55 1014.94 1014.17 1013.39 1012.72 1012.37 1011.97 1011.41 1010.84 1010.61 1010.39 1009.88 1009.39 1009.22 1009.03 1008.78 1008.66 1008.73 1008.81 1009.08 1009.37 1009.63 1010.12 1010.67
1027.88 1027.55 1027.07 1026.42 1025.88 1025.07 1024.21 1023.35 1022.45 1021.53 1020.85 1019.99 1019.37 1018.48 1017.62 1017.14 1016.54 1016.01 1015.57 1014.96 1014.46 1013.89 1013.45 1012.92 1012.27 1011.67 1011.11 1010.62 1010.19 1010.15 1009.77 1009.34 1009.28 1009.14 1009.01 1009.08 1009.34 1009.83 1010.07 1010.55 1010.79 1011.05 1011.91
1028.02 1027.40 1026.83 1026.20 1025.33 1024.64 1023.92 1023.11 1022.17 1021.41 1020.45 1019.52 1018.83 1018.07 1017.10 1016.34 1015.81 1015.48 1015.21 1014.59 1014.05 1013.77 1013.41 1012.78 1012.17 1011.57 1011.09 1010.75 1010.36 1010.18 1010.04 1009.80 1009.75 1009.55 1009.65 1009.93 1010.16 1010.48 1010.76 1011.37 1011.44 1011.77 1012.46
1028.14 1027.41 1026.59 1025.77 1025.07 1024.26 1023.56 1022.73 1021.78 1020.89 1020.15 1019.03 1018.11 1017.57 1016.82 1015.71 1015.29 1015.10 1014.79 1014.31 1014.03 1013.79 1013.41 1012.76 1012.11 1011.51 1011.21 1011.06 1010.77 1010.60 1010.53 1010.36 1010.21 1010.17 1010.22 1010.41 1010.86 1011.16 1011.50 1011.87 1012.22 1012.46 1012.82
1027.99 1027.23 1026.40 1025.67 1024.92 1024.14 1023.09 1021.64 1021.21 1020.11 1019.18 1018.35 1017.56 1016.97 1016.18 1015.72 1015.09 1014.56 1014.47 1014.20 1013.99 1013.77 1013.58 1013.13 1012.66 1012.18 1011.81 1011.75 1011.50 1011.22 1011.13 1011.02 1010.84 1010.86 1010.94 1011.21 1011.44 1011.81 1012.19 1012.49 1012.61 1012.90 1013.41
1028.24 1027.24 1026.28 1025.45 1024.61 1023.79 1022.91 1021.97 1020.33 1019.09 1018.58 1017.52 1016.89 1016.30 1016.13 1015.59 1014.73 1014.50 1014.30 1014.23 1014.25 1014.07 1013.93 1013.71 1013.57 1013.24 1012.86 1012.73 1012.56 1012.35 1012.19 1012.02 1011.75 1011.59 1011.75 1011.92 1012.12 1012.37 1012.47 1012.79 1013.08 1013.35 1013.77
1027.46 1026.78 1026.06 1025.15 1024.43 1023.61 1022.74 1021.76 1020.97 1019.60 1018.32 1017.07 1016.67 1016.61 1016.34 1016.05 1015.47 1014.74 1014.28 1014.49 1014.98 1015.17 1015.18 1015.08 1014.90 1014.62 1014.41 1014.17 1013.89 1013.61 1013.34 1013.11 1012.88 1012.78 1012.78 1012.85 1012.88 1012.94 1013.06 1013.27 1013.55 1013.80 1014.08
1026.86 1025.94 1025.36 1024.61 1023.92 1023.10 1022.32 1021.28 1020.32 1019.26 1018.21 1017.59 1017.11 1016.80 1016.86 1016.61 1016.46 1016.05 1015.54 1015.76 1016.21 1016.48 1016.56 1016.47 1016.36 1016.09 1015.80 1015.51 1015.18 1014.92 1014.71 1014.58 1014.32 1014.05 1013.96 1013.92 1013.91 1013.79 1013.91 1014.05 1014.23 1014.50 1014.70
1026.09 1025.42 1024.93 1024.21 1023.31 1022.50 1021.64 1020.67 1019.65 1018.77 1018.60 1018.46 1018.09 1017.85 1017.52 1017.33 1017.46 1017.57 1017.55 1017.55 1017.63 1017.81 1017.86 1017.79 1017.67 1017.45 1017.23 1016.89 1016.52 1016.25 1016.00 1015.84 1015.68 1015.53 1015.40 1015.25 1015.04 1014.81 1014.83 1014.84 1014.90 1015.09 1015.36
1025.71 1024.95 1024.39 1023.60 1022.85 1022.24 1021.44 1020.53 1019.84 1019.56 1019.46 1019.39 1019.24 1018.79 1018.62 1018.55 1018.79 1018.89 1018.95 1019.07 1019.10 1019.15 1019.14 1019.00 1018.83 1018.71 1018.55 1018.19 1017.75 1017.44 1017.27 1017.14 1017.06 1016.92 1016.74 1016.50 1016.23 1016.00 1016.01 1015.83 1015.90 1016.07 1016.11
1025.20 1024.62 1024.01 1023.29 1022.52 1022.00 1021.56 1020.97 1020.57 1020.44 1020.25 1020.16 1020.09 1020.23 1019.79 1019.78 1020.01 1020.18 1020.23 1020.28 1020.34 1020.43 1020.39 1020.14 1019.97 1019.93 1019.86 1019.49 1019.10 1018.60 1018.36 1018.22 1018.08 1017.84 1017.60 1017.44 1017.20 1017.11 1016.92 1016.79 1016.83 1016.92 1017.08
1024.89 1024.34 1023.61 1023.03 1022.66 1022.20 1021.88 1021.53 1021.30 1021.28 1021.17 1021.03 1021.00 1020.89 1020.89 1020.91 1021.07 1021.24 1021.29 1021.22 1021.12 1021.09 1021.03 1020.79 1020.57 1020.50 1020.40 1020.20 1020.05 1019.83 1019.49 1019.40 1019.37 1019.10 1018.55 1018.21 1018.04 1017.87 1017.81 1017.67 1017.71 1017.76 1017.81
1024.67 1024.16 1023.71 1023.23 1022.94 1022.70 1022.47 1022.09 1021.94 1022.01 1021.95 1021.81 1021.75 1021.68 1021.62 1021.77 1021.81 1021.86 1021.87 1021.81 1021.61 1021.50 1021.49 1021.33 1021.22 1021.19 1021.00 1020.73 1020.38 1020.25 1020.19 1020.04 1019.88 1019.69 1019.48 1019.00 1018.71 1018.61 1018.47 1018.45 1018.41 1018.44 1018.43
1024.81 1024.38 1024.06 1023.73 1023.29 1023.13 1023.08 1022.82 1022.71 1022.58 1022.62 1022.57 1022.50 1022.44 1022.18 1022.09 1022.16 1022.17 1022.16 1022.12 1022.03 1021.77 1021.57 1021.50 1021.37 1021.28 1021.15 1021.10 1020.91 1020.65 1020.36 1020.24 1020.02 1020.02 1019.74 1019.47 1019.19 1019.11 1019.04 1018.90 1018.85 1018.81 1018.91
1025.05 1024.64 1024.37 1024.07 1023.83 1023.57 1023.43 1023.23 1023.16 1023.09 1023.09 1022.98 1022.80 1022.69 1022.60 1022.42 1022.35 1022.36 1022.38 1022.33 1022.14 1021.91 1021.76 1021.53 1021.35 1021.29 1021.16 1020.86 1020.62 1020.43 1020.23 1019.92 1019.77 1019.78 1019.64 1019.42 1019.29 1019.19 1019.20 1019.11 1019.20 1019.08 1019.04
Wind_Speed
10 9 9 9 9 8 8 9 9 9 10 10 9 10 10 10 10 10 12 13 14 14 12 12 13 13 11 11 9 10 12 11 14 19 12 4 7 9 8 10 11 12 11
8 9 10 10 10 10 10 10 10 10 9 10 10 10 10 10 11 12 13 12 14 14 15 15 17 11 13 13 11 13 12 12 12 21 14 10 9 9 9 9 9 9 10
8 9 9 9 9 9 9 10 9 10 10 9 8 9 10 10 11 11 13 14 14 15 14 13 14 14 14 11 11 12 11 10 12 12 16 11 4 3 5 6 7 9 8
7 8 8 8 8 8 8 9 10 9 10 10 10 10 10 10 11 11 12 13 14 13 14 14 14 13 14 13 12 12 11 12 12 11 13 12 6 3 5 4 6 7 8
6 6 7 8 8 9 9 9 9 9 9 10 11 11 11 10 8 12 13 13 14 15 13 13 15 14 16 17 12 14 12 11 11 11 11 11 6 4 5 4 8 4 7
5 5 6 6 7 7 8 9 10 9 10 10 10 10 12 9 13 17 14 11 13 14 15 13 12 12 15 20 22 24 19 14 12 10 11 12 13 8 7 7 6 3 4
5 5 5 6 8 9 10 10 10 11 11 11 11 12 12 12 17 19 18 11 12 13 14 12 12 9 10 12 16 20 20 20 20 13 14 14 15 10 6 8 9 7 7
5 5 6 9 10 10 11 11 11 11 11 11 11 12 13 11 18 20 19 13 12 13 13 13 12 14 14 12 12 13 12 11 11 9 12 14 11 8 11 10 11 7 2
9 10 11 10 11 11 11 12 12 11 11 11 10 11 12 13 18 20 17 11 12 14 12 12 12 14 15 17 12 13 14 12 11 18 21 23 23 17 11 5 7 8 4
9 11 12 11 10 11 13 13 12 11 13 11 13 12 14 14 17 19 16 9 14 11 11 11 13 15 19 18 11 11 13 11 8 8 7 9 11 7 15 10 8 8 4
10 11 11 11 12 12 12 11 12 12 13 12 14 12 12 11 13 20 19 10 11 11 10 10 9 14 17 17 17 9 11 11 9 7 5 4 2 1 3 3 4 4 6
9 10 11 10 10 10 12 12 12 13 14 14 14 13 10 8 14 17 19 18 17 12 12 8 7 14 16 17 14 16 17 11 4 4 4 1 0 3 5 5 6 8 5
9 10 10 11 10 10 11 12 11 11 12 12 10 11 11 8 8 15 17 16 15 10 6 10 15 15 15 11 12 15 8 2 3 3 1 4 5 5 7 6 9 11 11
9 11 11 10 12 11 9 9 10 10 10 11 10 10 11 9 8 6 6 7 8 7 9 8 10 11 9 7 4 4 4 4 3 3 4 4 4 4 5 3 4 5 5
9 10 11 9 11 12 11 10 10 11 12 12 11 10 11 9 8 13 11 7 4 6 7 5 5 5 5 4 4 5 4 4 3 3 3 4 5 5 4 3 3 2 4
10 9 9 9 10 10 11 11 15 21 24 24 24 18 7 15 21 16 13 10 6 8 3 4 4 5 5 6 6 6 6 5 4 4 4 4 4 3 3 3 2 2 4
9 10 8 9 9 10 10 10 13 11 20 20 18 18 10 15 13 9 10 2 11 5 3 4 5 6 6 6 6 6 6 6 6 4 4 3 3 4 2 3 3 3 4
8 11 8 8 9 10 10 10 9 11 10 10 8 8 7 12 15 13 3 7 4 6 5 5 6 6 6 6 6 6 6 6 6 6 5 5 4 3 3 2 2 2 3
8 7 8 8 9 10 10 10 10 10 9 6 6 5 7 7 11 14 17 6 5 5 5 6 6 6 6 6 6 6 6 6 6 5 5 5 5 4 3 3 3 4 3
7 10 9 8 9 9 9 9 9 6 3 4 5 6 5 3 5 7 7 7 6 5 5 5 6 6 6 6 6 6 6 7 7 6 6 5 5 5 4 4 3 3 3
6 7 9 8 7 8 8 8 5 3 2 3 5 7 11 6 5 6 6 6 6 5 5 5 5 5 6 6 5 5 5 5 5 5 5 4 5 4 4 4 3 3 3
5 6 6 7 6 6 6 5 4 3 3 3 4 6 12 7 6 5 6 6 6 5 4 4 4 4 5 5 6 5 4 4 5 4 4 4 4 4 3 3 3 3 2
4 5 5 4 5 5 3 4 4 3 3 4 4 4 5 5 5 5 4 4 4 4 4 4 4 4 4 4 4 5 5 4 4 4 4 4 3 3 3 3 2 1 0
4 4 4 4 4 4 3 3 3 5 4 4 3 3 4 3 3 3 3 3 3 3 3 3 3 4 4 4 3 3 2 3 3 3 4 3 2 1 2 1 1 1 1
3 3 3 3 3 3 3 3 3 3 3 3 3 3 2 2 2 2 2 3 3 3 3 3 2 4 4 5 5 5 5 5 4 3 2 2 2 1 1 1 1 1 1
3 2 2 2 2 2 3 3 2 2 3 3 2 3 3 3 3 3 3 3 3 4 4 4 4 6 7 6 7 7 7 8 6 7 4 3 2 2 2 3 2 2 2
Wind_Direction
42 42 39 31 27 25 19 9 1 350 349 343 338 327 317 309 302 293 284 280 275 272 265 261 258 254 252 247 236 236 241 233 249 273 267 267 211 218 224 223 232 233 239
33 33 31 25 19 18 10 1 353 343 339 338 336 329 322 315 309 300 293 286 281 278 277 275 272 270 260 260 258 250 243 240 246 264 267 258 217 213 223 222 226 233 237
25 26 24 19 11 7 357 347 344 340 337 336 331 325 318 313 308 302 296 291 286 280 278 274 276 276 271 265 261 258 257 248 246 251 268 265 225 194 216 228 221 230 237
20 19 17 10 359 353 345 341 339 338 333 333 330 323 318 313 306 304 302 295 288 283 281 275 271 267 267 271 264 258 257 261 257 252 257 262 230 186 215 215 233 223 235
15 9 359 347 340 335 331 328 328 326 326 326 323 322 318 313 308 319 310 302 296 291 283 277 275 272 268 266 269 270 267 255 254 254 257 261 241 203 206 205 235 221 232
-0 354 342 336 326 325 326 325 321 319 318 320 319 316 313 308 308 305 302 297 293 289 288 286 278 265 263 263 267 268 265 268 261 258 260 254 253 238 219 208 204 187 245
337 337 331 333 331 332 325 324 323 323 320 317 313 310 306 304 301 302 304 295 290 286 287 289 288 278 268 268 273 273 273 269 264 271 266 258 266 250 200 200 198 202 218
346 338 342 341 333 330 328 323 322 321 314 309 302 299 297 295 297 300 301 293 287 283 281 282 281 286 282 276 276 275 272 268 266 264 264 275 275 266 203 212 206 206 117
353 343 339 338 330 327 325 325 322 318 312 306 299 297 291 292 300 301 306 297 286 285 284 278 276 281 287 288 284 281 279 274 263 265 271 278 280 258 196 167 172 167 173
342 331 327 328 322 317 315 312 307 303 298 299 296 291 286 284 296 301 307 293 292 291 290 287 276 280 291 295 287 284 281 283 280 272 274 281 277 243 203 194 170 179 145
326 321 318 317 312 303 299 298 298 300 298 297 292 292 286 280 291 301 303 293 289 294 292 296 292 292 297 299 295 284 285 291 283 272 272 276 271 163 148 137 151 186 165
319 313 309 302 296 297 295 295 292 295 294 298 299 299 297 296 288 300 304 300 297 292 293 295 299 299 301 303 306 299 301 300 268 270 260 250 91 81 87 85 86 72 37
322 306 299 299 294 292 297 296 295 293 293 290 290 295 299 291 282 293 302 301 307 301 303 303 305 306 305 307 310 306 308 303 306 289 340 55 63 84 89 71 76 83 58
306 306 306 302 304 299 294 292 290 288 287 289 288 290 296 295 292 298 305 299 304 303 314 307 304 305 314 321 320 1 358 1 357 35 64 75 83 83 80 70 81 87 81
308 304 305 304 306 303 291 290 286 277 278 286 282 274 285 287 297 303 301 303 311 301 315 308 328 350 11 7 16 19 8 2 31 63 87 90 86 88 78 80 77 76 85
313 308 309 307 305 301 300 298 286 287 288 286 284 284 281 298 296 296 292 298 314 339 316 354 2 13 24 12 18 27 24 21 35 60 81 83 100 98 100 68 73 78 105
289 299 301 301 304 305 306 304 306 307 299 294 295 292 309 344 294 289 291 295 41 18 17 22 21 21 28 27 30 33 31 22 33 54 66 69 67 73 56 65 65 72 91
290 291 290 297 297 298 297 295 291 295 304 308 321 324 2 18 18 18 282 70 46 31 31 26 25 23 21 20 20 21 25 23 31 33 40 39 42 43 44 47 50 75 114
299 298 303 300 295 291 288 285 283 284 288 307 326 336 2 16 35 36 50 61 62 47 31 35 25 22 19 18 20 26 30 28 24 31 35 36 29 28 46 43 64 52 94
293 288 289 296 299 298 298 296 291 294 337 357 2 356 342 24 40 38 44 50 54 47 34 34 25 25 21 18 21 20 27 27 23 26 27 26 26 27 42 43 47 59 56
297 300 295 294 300 304 305 308 326 351 31 39 21 27 51 64 59 52 52 47 42 36 27 26 24 23 15 13 19 26 33 35 29 24 22 23 18 36 24 37 51 51 77
293 298 300 304 308 313 325 334 356 6 28 35 42 18 45 52 48 46 47 43 36 29 16 19 29 22 12 10 2 12 22 22 16 11 17 17 15 24 22 37 38 52 77
307 309 317 327 324 330 341 14 20 17 29 38 29 39 37 46 48 41 36 30 28 19 12 13 16 14 13 11 9 3 8 15 4 350 358 7 9 14 9 14 28 9 327
333 338 339 349 1 353 356 23 39 35 29 37 37 42 51 39 35 32 15 0 1 2 359 359 4 360 347 346 350 349 344 337 343 348 345 349 5 3 8 14 354 355 327
344 350 348 352 4 3 348 15 17 25 18 16 13 357 17 14 351 343 331 319 315 311 311 314 310 314 310 309 301 300 301 308 290 312 306 324 352 356 351 302 311 271 271
316 323 322 329 336 345 338 342 343 344 332 318 312 307 307 306 299 296 297 297 298 299 298 289 285 283 286 280 273 274 272 273 257 229 238 249 257 250 244 261 249 261 250